Weather observations for the past three days for
Manitowoc, Manitowoc County Airport
Imperial (Metric)
Date Time (cdt) Wind (mph) Vis. (mi.) Weather Sky Cond. Temperature (ºF) Relative Humidity Wind Chill (°F) Heat Index (°F) Pressure Precipitation (in)
Air Dwpt 6 hour altimeter (in) sea level (mb) 1 hr 3 hr 6 hr
Max. Min.
04 22:56 NW 13 10.00 Fair CLR 55.9 32 40% 29.53 999.8
04 21:56 NW 16 10.00 Fair CLR 59 30.9 35% 29.49 998.5
04 20:56 NW 15 G 21 10.00 Fair CLR 62.1 33.1 34% 29.44 996.9
04 19:56 NW 13 G 22 10.00 Fair CLR 64.9 34 32% 29.41 995.8
04 18:56 NW 10 10.00 Fair CLR 68 39 78.1 68 35% 29.38 994.9
04 17:56 W 25 G 35 10.00 Fair and Breezy CLR 72 37.9 29% 29.37 994.5
04 16:56 W 15 G 22 10.00 A Few Clouds FEW055 75.9 43 31% 77 29.35 993.6
04 15:56 SW 20 G 41 10.00 Light Rain FEW085 73 44.1 35% 29.36 994.0
04 14:56 W 21 G 29 10.00 Fair and Breezy CLR 75.9 41 29% 77 29.36 993.9
04 13:56 W 22 G 31 10.00 Fair and Breezy CLR 78.1 41 27% 78 29.36 994.1
04 12:56 SW 28 G 36 10.00 Fair and Windy CLR 75.9 39.9 75.9 55 27% 77 29.37 994.2
04 11:56 SW 25 G 33 10.00 Fair and Breezy CLR 73.9 39 28% 29.38 994.8
04 10:56 SW 26 G 38 10.00 Fair and Windy CLR 72 37 28% 29.41 995.8
04 09:56 SW 22 G 28 10.00 Fair and Breezy CLR 69.1 37 31% 29.44 996.7
04 08:56 SW 20 G 23 10.00 Fair CLR 66.9 36 32% 29.47 998.0
04 07:56 SW 15 10.00 Fair CLR 63 36 37% 29.49 998.7
04 06:56 SW 8 10.00 Fair CLR 55 36 55.9 48.9 49% 29.51 999.3
04 05:56 SW 6 10.00 Fair CLR 50 33.1 52% 48 29.52 999.6
04 04:56 W 6 10.00 Fair CLR 51.1 35.1 54% 29.54 1000.2
04 03:56 SW 6 10.00 Fair CLR 51.1 37.9 61% 29.56 1000.9
04 02:56 SW 6 10.00 Fair CLR 51.1 39 64% 29.57 1001.3
04 01:56 W 5 10.00 Fair CLR 53.1 39.9 61% 29.59 1001.8
04 00:56 W 7 10.00 Fair CLR 55.9 41 60.1 48.9 57% 29.61 1002.5
03 23:56 W 8 10.00 Fair CLR 55.9 41 57% 29.61 1002.4
03 22:56 SW 7 10.00 Fair CLR 57 42.1 58% 29.61 1002.6
03 21:56 SW 6 10.00 Fair CLR 57.9 43 58% 29.62 1002.9
03 20:56 S 6 10.00 Fair CLR 53.1 43 69% 29.61 1002.8
03 19:56 E 6 10.00 Fair CLR 51.1 43 74% 29.6 1002.5
03 18:56 S 6 G 20 10.00 Fair CLR 60.1 43 66.9 60.1 53% 29.59 1002.2
03 17:56 W 14 G 25 10.00 Fair CLR 66.9 39.9 37% 29.6 1002.1
03 16:56 SW 18 G 23 10.00 Fair CLR 66.9 41 39% 29.61 1002.4
03 15:56 SW 18 G 30 10.00 Fair CLR 66 39.9 39% 29.62 1003.1
03 14:56 SW 22 G 29 10.00 Fair and Breezy CLR 66 39.9 39% 29.65 1004.0
03 13:56 SW 22 G 30 10.00 Fair and Breezy CLR 64 41 43% 29.67 1005.1
03 12:56 SW 28 G 31 10.00 Fair and Windy CLR 62.1 42.1 62.1 50 48% 29.7 1005.9
03 11:56 W 23 G 36 10.00 Fair and Breezy CLR 61 39.9 46% 29.72 1006.7
03 10:56 SW 17 G 29 10.00 A Few Clouds FEW110 61 41 48% 29.74 1007.2
03 09:56 SW 18 G 26 10.00 Partly Cloudy SCT080 57 37.9 49% 29.75 1007.7
03 08:56 SW 16 G 20 10.00 A Few Clouds FEW075 54 35.1 49% 29.77 1008.2
03 07:56 SW 9 10.00 A Few Clouds FEW080 51.1 34 52% 29.78 1008.6
03 06:56 SW 9 10.00 Fair CLR 50 33.1 52 37 52% 47 29.79 1008.9
03 05:56 W 10 10.00 Light Rain FEW060 BKN080 51.1 33.1 50% 29.81 1009.5
03 04:56 W 13 10.00 Mostly Cloudy SCT070 BKN090 BKN110 51.1 30.9 46% 29.8 1009.3
03 03:56 W 8 10.00 Overcast OVC100 48.9 30.9 50% 46 29.82 1009.9
03 02:56 SW 7 10.00 Mostly Cloudy BKN090 43 34 71% 39 29.84 1010.9
03 01:56 Calm 10.00 Overcast OVC085 37.9 34 86% 29.85 1011.3
03 00:56 Calm 10.00 Fair CLR 37.9 34 45 37.9 86% 29.87 1012.0
02 23:56 S 6 10.00 Fair CLR 39 33.1 79% 35 29.89 1012.5
02 22:56 S 12 10.00 Fair CLR 41 32 70% 35 29.91 1013.1
02 21:56 S 12 10.00 Fair CLR 42.1 33.1 71% 36 29.93 1013.8
02 20:56 S 12 10.00 Fair CLR 42.1 30.9 65% 36 29.94 1014.3
02 19:56 S 15 10.00 Fair CLR 43 30 60% 36 29.94 1014.4
02 18:56 S 20 G 26 10.00 Fair CLR 45 28.9 46.9 44.1 54% 38 29.95 1014.7
02 17:56 S 22 G 26 10.00 Fair and Breezy CLR 45 27 49% 37 29.96 1015.2
02 16:56 S 18 10.00 Fair CLR 45 30 56% 38 29.98 1015.7
02 15:56 S 15 10.00 A Few Clouds FEW080 46 28.9 51% 40 30 1016.3
02 14:56 SE 17 10.00 A Few Clouds FEW075 45 30 56% 38 30.02 1017.1
02 13:56 SE 15 10.00 A Few Clouds FEW070 44.1 27 51% 38 30.04 1018.0
02 12:56 SE 13 10.00 A Few Clouds FEW070 46 30 50 36 54% 41 30.06 1018.4
02 11:56 SE 10 10.00 Fair CLR 46.9 33.1 59% 43 30.06 1018.6
02 10:56 N 7 10.00 Fair CLR 48.9 21 33% 46 30.08 1019.2
02 09:56 NW 10 10.00 Fair CLR 46.9 23 39% 43 30.09 1019.6
02 08:56 NW 10 10.00 Fair CLR 44.1 25 47% 39 30.1 1019.9
02 07:56 W 8 3.00 Fair with Haze CLR 39.9 28.9 65% 35 30.1 1019.8
02 06:56 W 7 10.00 Fair CLR 37 32 37 28 82% 32 30.1 1019.8
02 05:56 W 6 10.00 Fair CLR 32 28.9 88% 27 30.09 1019.7
02 04:56 W 5 10.00 Fair CLR 30 28.9 96% 26 30.09 1019.5
02 03:56 Calm 10.00 Fair CLR 28.9 27 92% 30.09 1019.6
02 02:56 W 5 10.00 Fair CLR 30.9 30 96% 27 30.09 1019.4
02 01:56 W 5 0.00 Fair CLR 28 27 96% 24 30.09 1019.8
02 00:56 Calm 0.00 Fair CLR 28 27 37.9 28 96% 30.09 1019.7
01 23:56 Calm 10.00 Fair CLR 30 28 92% 30.1 1019.8
Date Time (cdt) Wind (mph) Vis. (mi.) Weather Sky Cond. Air Dwpt Max. Min. Relative Humidity Wind Chill (°F) Heat Index (°F) altimeter (in) sea level (mb) 1 hr 3 hr 6 hr
6 hour
Temperature (ºF) Pressure Precipitation (in)